Location: Asheville, NC
(35.6000°N, 82.5500°W)
Time: 06:05:18
(UTC-04:00)

Vanguard 2 Rocket - Pass Details

Date: 16 February 2018
Orbit: 554 x 3327 km, 32.9° (Epoch: 19 May)

Event Time Altitude Azimuth Distance (km) Brightness Sun altitude
Rises 01:34:17 0° 255° (WSW) 5,924 - -64.1°
Reaches altitude 10° 01:37:39 10° 254° (WSW) 5,208 - -63.8°
Maximum altitude 01:54:42 80° 171° (S) 3,268 - -61.8°
Exits shadow 02:03:07 47° 94° (E) 4,001 9.9 -60.7°
Drops below altitude 10° 02:15:06 10° 88° (E) 6,055 11.3 -59.0°
Sets 02:19:23 0° 88° (E) 6,881 11.7 -58.3°
